www.pogodaiklimat.ru

Погода и климат >> Архив погоды >> Россия >> Крым >> Алушта


АРХИВ ПОГОДЫ в Алуште

Время (UTC), дата Ветер
(напр.,м/с)
 
Видим.   Явления Облачность Т
(С)
Тd
(С)
f
(%)
Тe
(С)
Тes
(С)
Комфортность P
(гПа)
Po
(гПа)
Тmin
(С)
Tmax
(С)
R
(мм)
R24
(мм)
S
(см)
12 12.08 ЮВ 2 50 км 1/1 1500 м
[Cu hum]
+27.3 +18.0 57 +32 +43 очень
душно
1019.3 1010.7
15 12.08 В 1 50 км ясно +28.4 +16.3 48 +32 +34 душно 1019.3 1010.7
18 12.08 СЗ 1 20 км ясно +25.6 +15.0 52 +28 +28 жарко 1019.3 1010.7 +29.1
21 12.08 СЗ 1 20 км ясно +25.2 +14.3 51 +28 +28 жарко 1019.4 1010.7
00 13.08 СЗ 2 20 км ясно +25.1 +13.0 47 +27 +27 жарко 1018.0 1009.3
03 13.08 С 2 50 км ясно +24.8 +12.5 46 +27 +27 жарко 1017.5 1008.9 +24.8
06 13.08 В 2 50 км ясно +28.0 +14.6 44 +30 +37 жарко 1019.3 1010.7 +24.4
09 13.08 В 3 50 км ясно +28.0 +16.3 49 +31 +45 душно 1017.9 1009.3
12 13.08 В 2 50 км ясно +28.2 +16.1 48 +31 +44 душно 1016.5 1008.0
15 13.08 В 1 50 км ясно +27.7 +14.0 43 +30 +32 жарко 1016.6 1008.0
18 13.08 СЗ 2 20 км ясно +24.8 +14.3 52 +27 +27 жарко 1015.3 1006.7 +30.8
21 13.08 С 1 20 км ясно +25.8 +9.6 36 +26 +26 жарко 1015.3 1006.7
00 14.08 С 2 20 км ясно +25.4 +7.9 33 +26 +26 жарко 1013.9 1005.3
03 14.08 СЗ 2 50 км ясно +26.1 +5.5 27 +25 +25 комфорт 1012.1 1003.6 +24.0
06 14.08 СВ 2 50 км ясно +31.0 +9.2 26 +30 +37 жарко 1012.4 1004.0 +24.0
09 14.08 В 2 50 км ясно +28.4 +14.6 43 +31 +47 душно 1012.5 1004.0
12 14.08 В 2 50 км ясно +27.0 +18.8 61 +32 +44 очень
душно
1011.2 1002.7
15 14.08 СВ 1 50 км ясно +28.6 +14.0 41 +31 +33 жарко 1009.8 1001.3
18 14.08 СЗ 1 20 км ясно +27.0 +12.6 41 +29 +29 жарко 1009.8 1001.3 +31.9
21 14.08 СЗ 1 20 км 1/0
[Ci fib]
+26.1 +10.7 38 +27 +27 жарко 1009.9 1001.3
00 15.08 СЗ 1 20 км 3/0
[Ci fib]
+26.6 +12.6 42 +28 +28 жарко 1007.2 998.7
03 15.08 З 1 50 км 9/0
[Ci sp]
+25.2 +15.5 55 +28 +28 жарко 1006.6 998.1 +25.0
06 15.08 Ю 3 50 км 9/0
[Ac trans Ci sp]
+27.4 +13.3 42 +29 +30 жарко 1007.2 998.7 +24.5
09 15.08 СВ 2
{11}
50 км 10/3 1500 м
[Sc As trans]
+26.8 +20.1 67 +33 +33 очень
душно
1007.2 998.7
12 15.08 Ю 6
{11}
50 км 6/0
[Ac trans Ci sp]
+30.3 +16.7 44 +34 +37 очень
душно
1006.9 998.6
15 15.08 СЗ 6
{11}
50 км 10/6 1500 м
[Cb calv Ac trans Ci sp]
+30.0 +15.5 41 +33 +33 душно 1006.7 998.3
18 15.08 З 1
{11}
20 км 10/6 1500 м
[Cb calv Ac As]
+27.6 +17.3 53 +32 +32 очень
душно
1006.7 998.3 +33.1
21 15.08 В 1 20 км 8/8 1500 м
[Cb calv]
+25.4 +17.3 61 +29 +29 душно 1008.5 1000.0
00 16.08 ЮЗ 1 20 км 9/9 1500 м
[Cb calv]
+24.2 +15.7 59 +27 +27 жарко 1008.6 1000.0
03 16.08 СЗ 4 50 км 10/10 1500 м
[Cb calv]
+24.6 +16.5 61 +28 +28 душно 1007.0 998.5 +24.2
06 16.08 штиль 0
{11}
50 км 10/4 1500 м
[Cb calv As op]
+25.8 +19.8 69 +31 +32 очень
душно
1008.2 999.7 +23.8
09 16.08 В 1 50 км 10/5 1500 м
[Cb calv As op]
+27.0 +18.0 58 +32 +32 очень
душно
1008.5 1000.0
12 16.08 Ю 4 50 км 10/6 1500 м
[Cb calv As op]
+27.0 +16.6 53 +31 +31 душно 1008.5 1000.0
15 16.08 штиль 0 20 км 10/10 1500 м
[Cb calv]
+25.8 +20.6 73 +32 +32 очень
душно
1009.8 1001.3
18 16.08 З 2
{10}
20 км 10/10 1500 м
[Cb calv]
+24.4 +19.9 76 +30 +30 очень
душно
1009.7 1001.2 +27.7
21 16.08 З 4 20 км 8/8 1500 м
[Cb calv]
+23.8 +17.5 68 +28 +28 душно 1011.3 1002.7
00 17.08 СЗ 6-11
{10}
20 км 1/1 1500 м
[Sc]
+23.4 +15.5 61 +28 +28 душно 1009.6 1001.0
03 17.08 СЗ 5
{11}
50 км ясно +23.0 +11.4 48 +25 +25 комфорт 1009.8 1001.2 +23.0
06 17.08 З 5-11
{11}
50 км 1/1 1500 м
[Cu med, cong]
+24.0 +12.5 49 +26 +29 жарко 1010.5 1001.9 +22.7
09 17.08 З 5
{11}
50 км 3/1 1500 м
[Cu med, cong Ac trans]
+27.5 +10.2 34 +28 +34 жарко 1011.2 1002.7
12 17.08 З 4
{10}
50 км 6/3 1500 м
[Cb calv Ac lent Cc]
+29.2 +14.4 40 +31 +36 жарко 1010.6 1002.2
15 17.08 З 5
{10}
50 км 9/3 1500 м
[Cb calv Ac trans Ci sp]
+26.6 +9.7 35 +27 +28 жарко 1010.7 1002.2
18 17.08 СЗ 5-10
{11}
20 км 3/1 1500 м
[Cu med, cong Ci fib]
+22.3 +8.7 42 +24 +24 комфорт 1011.4 1002.8 +30.1
21 17.08 СЗ 5
{10}
20 км 10/1 1500 м
[Sc Ac lent Ci sp]
+21.8 +8.7 43 +23 +23 комфорт 1012.7 1004.0
00 18.08 СЗ 5
{11}
20 км 10/1 1500 м
[Sc Ac trans Ci sp]
+21.8 +7.3 39 +23 +23 комфорт 1011.0 1002.4
03 18.08 СЗ 5
{10}
50 км 10/4 1500 м
[Cb calv Ac lent Ci sp]
+21.6 +9.3 45 +23 +23 комфорт 1011.2 1002.6 +21.1
06 18.08 З 4
{10}
50 км 10/6 1500 м
[Cb calv Ac As]
+20.3 +11.9 58 +22 +23 комфорт 1011.9 1003.2 +19.9
09 18.08 СЗ 4
{10}
50 км 10/3 1500 м
[Cb calv As op]
+22.4 +11.2 49 +25 +25 комфорт 1014.0 1005.3
12 18.08 СЗ 4 50 км слаб. ливневой дождь 10/10 1500 м
[Cb calv]
+18.8 +14.3 75 +20 +20 очень
холодно
1013.7 1005.0
15 18.08 З 2 20 км слаб. ливневой дождь 10/10 1500 м
[Cb calv]
+17.1 +15.2 89 +17 +17 очень
холодно
1015.2 1006.4 4
18 18.08 штиль 0 20 км {ливн. осадки} 10/10 1500 м
[Cb calv]
+16.9 +13.9 82 +17 +17 холодно 1015.2 1006.4 +22.4 6
21 18.08 З 3 20 км 9/9 1500 м
[Cb calv]
+17.6 +14.5 82 +18 +18 холодно 1016.9 1008.0
00 19.08 СЗ 1 20 км 7 баллов +18.7 +13.3 71 +21 +21 комфорт 1015.5 1006.7
03 19.08 СЗ 2 50 км 9/9 1500 м
[Cb calv]
+20.4 +13.2 63 +23 +23 комфорт 1016.2 1007.5 +16.9 2
06 19.08 СЗ 2 20 км 1/1 1500 м
[Cu hum]
+23.5 +13.6 54 +26 +32 жарко 1018.0 1009.3 +16.9
09 19.08 Ю 3 50 км 2 балла +25.7 +16.0 55 +29 +39 душно 1017.9 1009.3

 

Местоположение метеостанции Алушта (Крым, Россия): широта 44.67 долгота 34.40 высота над уровнем моря 75 м.

В архиве по умолчанию представлена погода в Алуште за последнюю неделю. Архивные данные за месяц целиком и за предыдущие месяцы, начиная с января 2011 года, Вы можете получить, выбрав интересующий диапазон дат из раскрывающегося списка и нажав кнопку "Ввод!".


*Определитесь, кто Вы:
робот инопланетянин человек

Внимание! Время в таблицах - всемирное. Для получения местного времени необходимо прибавить поправку, которая равна 3 ч.

Смотрите также архив погоды в соседних городах и на ближайших метеорологических станциях:

Погода на Ангарском Перевале (Крым, Россия) (10 км)
Погода в Никитском саду (Крым, Россия) (20 км)
Погода в Ялте (Крым, Россия) (28 км)
Погода на Ай-Петри (Крым, Россия) (34 км)
Погода в Симферополе город (Крым, Россия) (38 км)
Погода в Почтовом (Крым, Россия) (40 км)
Погода в Белогорске (Крым, Россия) (45 км)
Погода в Симферополе (Крым, Россия) (52 км)
Погода в Карадаге (Крым, Россия) (68 км)
Погода в Севастополе (город Севастополь, Россия) (69 км)

Пояснения к столбцам:

Ветер - указаны скорость ветра в м/с - средняя за 10 мин, порывы в срок и между сроками (в фигурных скобках) и направление, откуда дует ветер: С - северный, СВ - северо-восточный, В - восточный, ЮВ - юго-восточный, Ю - южный, ЮЗ - юго-западный, З - западный, СЗ - северо-западный.
Видимость - горизонтальная дальность видимости в метрах или километрах. При видимости от 1 до 10 км при отсутствии осадков обычно наблюдается дымка, при ухудшении видимости до 1 км и менее - туман. В сухую погоду видимость может ухудшаться дымом, пылью или мглою.
Явления - указаны атмосферные явления, наблюдавшиеся в срок или в последний час перед сроком; фигурными скобками обозначены явления, наблюдавшиеся между сроками (за 1-3 часа до срока); квадратными скобками обозначены град или гололедные отложения с указанием их диаметра в мм.
Облачность - указаны через наклонную черту общая и нижняя облачность в баллах и высота нижней границы облаков в метрах; квадратными скобками обозначены формы облаков: Ci - перистые, Cs - перисто-слоистые, Cc - перисто-кучевые, Ac - высококучевые, As - высокослоистые, Sc - слоисто-кучевые, Ns - слоисто-дождевые, Cu - кучевые, Cb - кучево-дождевые. Подробнее классификацию облаков см. в Атласе облаков (PDF).
T - Температура воздуха - температура, измеренная на высоте 2 м над землей.
Td - Температура точки росы - температура, при понижении до которой содержащийся в воздухе водяной пар достигнет насыщения.
f - Относительная влажность воздуха - влажноcть воздуха, измеренная на высоте 2 м над землей.
Te - Эффективная температура - температура, которую ощущает одетый по сезону человек в тени. Характеристика душности погоды. При расчете учитывается влияние влажности воздуха и скорости ветра на теплоощущения человека.
Tes - Эффективная температура на солнце - температура, которую ощущает человек, с поправкой на солнечный нагрев. Характеристика знойности погоды. Зависит от высоты солнца над горизонтом, облачности и скорости ветра. Ночью, в пасмурную погоду, а также при ветре 12 м/с и более поправка равна нулю.
P - Атмосферное давление - приведенное к уровню моря атмосферное давление.
Po - Атмосферное давление - измеренное на уровне метеостанции атмосферное давление.
Tmin - Минимальная температура - минимум температуры воздуха на высоте 2 м над землей.
Tmax - Максимальная температура - максимум температуры воздуха на высоте 2 м над землей.
R - Количество осадков - Количество выпавших осадков за период времени, мм. При наведении курсора мыши на число - период времени, за который выпало указанное количество осадков.
R24 - Количество осадков - Количество выпавших осадков за 24 часа, мм.
S - Снежный покров - Высота снежного покрова, см. При наведении курсора мыши на число - состояние снежного покрова и степень покрытия местности в баллах.